Starlink 30799

operational
NORAD ID: 58121 Int'l Des: 2023-162 Owner: SPXS Country: US Constellation: starlink
LEOCIRCULAR

About Starlink 30799

Description loading...

Live Position

Loading 3D Globe...

Upcoming Passes

Altitude History

Altitude vs Time

uPlot chart will show altitude changes over time

Two-Line Element Set

1 58121U 23162D 25303.50491327 .00001272 00000-0 10917-3 0 9998
2 58121 43.0022 120.7367 0000458 268.1302 91.9488 15.02550361112714
Epoch: Oct 30, 2025 • Age: 23 hours

Current Status

Altitude 562.5 km
Velocity 7.59 km/s
Sub-Earth Point 42.97°N, 9.06°E
Launch Date Oct 22, 2023
Age 2 years
Type internet

Technical Details

Classification Payload
Mass 730.00 kg
Dry Mass 700.00 kg
Total Mass 730.00 kg
Length 0.30 m
Diameter 4.10 m
Span 29.00 m
Shape Box + pan
Manufacturer SPXS
Bus Type Starlink V2M
Phase Status In Orbit
Owner/State SPXS/US

Large Constellations

Loading constellations...